Hourly Data Report for October 26, 2015

All times are specified in Local Standard Time (LST). Add 1 hour to adjust for Daylight Saving Time where and when it is observed.

CLYDE RIVER A
NUNAVUT

70°29'09.000" N
68°31'01.000" W
26.50 m
2400804
71090
YCY

Download Data

Hourly Data (October 2015)
Hourly Data Report for October 26, 2015
Temp Definition
°C
Dew Point Temp Definition
°C
Rel Hum Definition
%
Wind Dir Definition
10's deg

Wind Spd Definition
km/h
Visibility Definition
km
Stn Press Definition
kPa
Hmdx Definition


Wind Chill Definition


Weather Definition


TIME
00:00 Legend Double Dagger -6.7 -7.7 93 29 54 0.8 97.89   -18 Moderate Snow
01:00 Legend Double Dagger -6.8 -7.6 94 29 50 0.6 97.93   -17 Moderate Snow
02:00 Legend Double Dagger -5.2 -6.0 94 31 50 0.8 97.96   -15 Moderate Snow
03:00 Legend Double Dagger -6.0 -7.0 93 32 52 1.6 97.97   -16 Snow
04:00 Legend Double Dagger -6.1 -7.6 89 32 45 2.4 98.01   -16 Snow
05:00 Legend Double Dagger -7.2 -9.5 84 30 41 8.1 98.05   -17 Snow
06:00 Legend Double Dagger -7.7 -10.5 80 29 34 16.1 98.08   -17 LegendNANA
07:00 Legend Double Dagger -7.8 -10.6 81 29 26 16.1 98.12   -16 Snow
08:00 Legend Double Dagger -7.8 -10.4 82 27 22 16.1 98.13   -15 Snow
09:00 Legend Double Dagger -7.9 -10.5 82 28 18 16.1 98.14   -15 Snow
10:00 Legend Double Dagger -7.7 -10.2 82 28 18 9.7 98.17   -15 Snow
11:00 Legend Double Dagger -7.4 -9.4 86 26 8 6.4 98.18   -11 Snow
12:00 Legend Double Dagger -7.8 -10.2 83 27 11 16.1 98.20   -13 Snow
13:00 Legend Double Dagger -7.8 -10.4 82 LegendMM 4 6.4 98.23   -10 Snow
14:00 Legend Double Dagger -8.1 -10.8 81 23 5 16.1 98.28   -11 Snow
15:00 Legend Double Dagger -7.3 -10.5 78 21 15 14.5 98.31   -13 Snow
16:00 Legend Double Dagger -7.9 -10.0 85 27 11 6.4 98.37   -13 Snow
17:00 Legend Double Dagger -8.9 -10.7 87 31 9 8.1 98.43   -14 Snow
18:00 Legend Double Dagger -8.6 -10.0 90 29 21 1.6 98.48   -16 Snow
19:00 Legend Double Dagger -9.0 -10.1 92 36 5 3.2 98.55   -12 Snow
20:00 Legend Double Dagger -9.4 -10.4 93 4 8 16.1 98.64   -14 Snow
21:00 Legend Double Dagger -9.4 -10.3 93 27 8 16.1 98.70   -14 Snow
22:00 Legend Double Dagger -12.5 -14.9 83 21 5 16.1 98.77   -16 LegendNANA
23:00 Legend Double Dagger -11.2 -14.2 79 20 15 16.1 98.81   -18 LegendNANA

Notes on Data Quality.

Legend

  • E = Estimated
  • M = Missing
  • NA = Not Available
  • ‡ = Partner data that is not subject to review by the National Climate Archives
Date modified: